DELTA 1 R/B, 2758

Orbit data source: Space-Track

DELTA 1 R/B, 2758 is space debris in SSO originally from a launch on Thu, 20 Apr 1967 UTC launched from the Air Force Western Test Range (AFWTR). Debris objects in space refer to the collection of defunct objects orbiting the Earth. Examples of debris include non-operational satellites, rocket bodies, and fragments generated from explosions, collisions, or faulty payload assembly.

Loading next visibility...
DELTA 1 R/B details
Identifier
2758, 1967-036B
Orbit
SSO
Last TLE update6 hours ago
Origin
Flag of USGSFC (US)
ManufacturerABL
MissionSpacecraft
Bus & MotorALTAIR, Unknown motor
Mass33 kg wet, 33 kg dry
Launch date (UTC)
1967-04-20 (58 years ago)
Launch vehicleUnknown
Launch site
Air Force Western Test Range (AFWTR)
Object type
Payload
Rocket body
Debris
Shape & HBRCyl, 1.5 m
Radar Cross Section0.687 m², Medium (>0.1 m² and < 1m²)

Expand to show TLE details & history

TLE from 6 hours ago
0 DELTA 1 R/B
1  2758U 67036B   25023.52489573 -.00000032  00000-0  83663-4 0  9995
2  2758 101.8982 271.6542 0040653 255.5047 104.1521 12.68906955675065
Epoch: 2025-01-23T12:35Z
Definitive object data (Epoch: 2025-01-23T12:35:50.991Z)
Latitude-0.00003°
Longitude-40.40943°
Altitude1,396.828 km
Speed7.158 km/s
True Right ascension18h 06m 37s
True Declination0° 00' 00"
Sunlit
Object was in daylight at TLE epoch
Visualization TLE readout
Latitude34.80124°
Longitude-48.53681°
Altitude1,415.091 km
Speed7.145 km/s
Apparent Right ascension14h 18m 09s
Apparent Declination5° 58' 50"
Sunlit
Object is in daylight
Visualization observer readout
Local Sidereal Time19:40:35
Azimuth268.585° W
Elevation11.031°
Doppler factor1
Orbital elements
Apogee altitude1,415.482 km
Perigee altitude1,352.371 km
Semi-major axis7,762.064 km
Eccentricity0.0040653
Inclination101.8982°
RAAN271.6542°
Arg. of periapsis255.5047°
True anomaly104.60325°
Mean anomaly104.1521°
Eccentric anomaly104.37773°
Mean motion3.17378 °/min
BSTAR0.000083663
Orbital period113.43 mins
Loading maneuver chart data...
Loading historical data...
Loading historical data...
Loading historical data...
Loading historical data...
Loading historical data...
Loading historical data...
Loading historical data...
Other satellites on launch #36 in the year 1967 (1967-04-20 UTC)

DELTA 1 R/B Visibility forecast

Observer location: undefined°, undefined

Span
Click to sort rows by Start time (UTC) header in descending order
Start Az.
Max El. time (UTC)
Max El. Az.
Max El.
End time (UTC)
End Az.
12 mins2025-01-24 04:23:41.577Z42.401° NE2025-01-24 04:28:41.577Z91.76° ESE30.211°2025-01-24 04:35:41.577Z160.002° S
13 mins2025-01-24 06:14:41.577Z2.976° NNE2025-01-24 06:20:41.577Z295.805° NW37.432°2025-01-24 06:27:41.577Z226.065° WSW
13 mins2025-01-24 15:13:41.577Z124.827° SE2025-01-24 15:19:41.577Z59.994° ENE34.872°2025-01-24 15:26:41.577Z355.534° N
13 mins2025-01-24 17:04:41.577Z196.117° SSW2025-01-24 17:10:41.577Z255.917° W33.542°2025-01-24 17:17:41.577Z325.877° NNW
|